Weather History for KBML - February, 2003

Change the Weather History Date:

Monday, February 17, 2003

  Actual Average Record
Temperature  
Mean Temperature 2 °F -  
Max Temperature 14 °F 27 °F 48 °F (2011)
Min Temperature -11 °F 2 °F -25 °F (2015)
Degree Days  
Heating Degree Days 64    
Moisture  
Dew Point -13 °F    
Average Humidity 51    
Maximum Humidity 74    
Minimum Humidity 32    
Precipitation  
Precipitation 0.00 in - - ()
Sea Level Pressure  
Sea Level Pressure 30.50 in    
Wind  
Wind Speed 1 mph (NNW)    
Max Wind Speed 5 mph    
Max Gust Speed -    
Visibility 10 miles    
Events      
Averages and records for this station are not official NWS values.
T = Trace of Precipitation, MM = Missing Value Source: NWS Daily Summary

Daily Weather History Graph

Daily Weather History Graph

Search for Another Location

Airport or City:

Trip Planner

Search our weather history database for the weather conditions in past years. The results will help you decide how hot, cold, wet, or windy it might be!

Date:

Astronomy

Feb. 17, 2003 Rise Set
Actual Time 6:42 AM EST 5:15 PM EST
Civil Twilight 6:12 AM EST 5:45 PM EST
Nautical Twilight 5:38 AM EST 6:19 PM EST
Astronomical Twilight 5:04 AM EST 6:53 PM EST
Moon 6:10 PM EST (2/17) 7:30 AM EST (2/17)
Length of Visible Light 11h 33m
Length of Day
10h 33m
Full, 99% of the Moon is Illuminated
Feb 17
Full
Feb 23
Last Quarter
Mar 2
New
Mar 11
First Quarter
Mar 18
Full

Hourly Weather History & Observations

Time (EST) Temp. Windchill Dew Point Humidity Pressure Visibility Wind Dir Wind Speed Gust Speed Precip Events Conditions
12:52 AM -11.9 °F - -18.9 °F 71% 30.71 in 10.0 mi Calm Calm - N/A   Clear
1:52 AM -11.9 °F - -18.0 °F 74% 30.70 in 10.0 mi Calm Calm - N/A   Clear
2:52 AM -11.9 °F - -18.0 °F 74% 30.68 in 10.0 mi Calm Calm - N/A   Clear
3:52 AM -11.0 °F - -18.0 °F 71% 30.67 in 10.0 mi Calm Calm - N/A   Clear
4:52 AM -9.9 °F - -18.0 °F 68% 30.63 in 10.0 mi Calm Calm - N/A   Clear
5:52 AM -9.0 °F - -18.0 °F 65% 30.62 in 10.0 mi Calm Calm - N/A   Clear
6:52 AM -9.0 °F - -18.0 °F 65% 30.62 in 10.0 mi Calm Calm - N/A   Clear
7:52 AM -8.0 °F - -18.0 °F 61% 30.62 in 10.0 mi Calm Calm - N/A   Clear
8:52 AM -5.1 °F - -18.9 °F 51% 30.63 in 10.0 mi Calm Calm - N/A   Clear
9:52 AM -2.0 °F - -18.0 °F 47% 30.61 in 10.0 mi Calm Calm - N/A   Clear
10:52 AM -0.0 °F - -15.0 °F 49% 30.59 in 10.0 mi Calm Calm - N/A   Clear
11:52 AM 3.9 °F -3.4 °F -14.1 °F 43% 30.54 in 10.0 mi Variable 3.5 mph - N/A   Clear
12:52 PM 7.0 °F - -14.1 °F 38% 30.50 in 10.0 mi Calm Calm - N/A   Clear
1:52 PM 10.0 °F 3.6 °F -13.0 °F 35% 30.46 in 10.0 mi Variable 3.5 mph - N/A   Clear
2:52 PM 14.0 °F 6.5 °F -11.0 °F 32% 30.41 in 10.0 mi NW 4.6 mph - N/A   Clear
3:52 PM 14.0 °F 8.2 °F -11.0 °F 32% 30.39 in 10.0 mi NNW 3.5 mph - N/A   Clear
4:52 PM 14.0 °F 8.2 °F -9.9 °F 34% 30.37 in 10.0 mi WNW 3.5 mph - N/A   Clear
5:52 PM 12.0 °F - -7.1 °F 42% 30.37 in 10.0 mi Calm Calm - N/A   Clear
6:52 PM 10.9 °F 4.7 °F -9.9 °F 39% 30.37 in 10.0 mi North 3.5 mph - N/A   Clear
7:52 PM 9.0 °F - -6.0 °F 51% 30.36 in 10.0 mi Calm Calm - N/A   Clear
8:52 PM 10.0 °F - -7.1 °F 46% 30.35 in 10.0 mi Calm Calm - N/A   Partly Cloudy
9:52 PM 10.9 °F - -6.0 °F 47% 30.31 in 10.0 mi Calm Calm - N/A   Overcast
10:52 PM 12.0 °F - -5.1 °F 46% 30.28 in 10.0 mi Calm Calm - N/A   Overcast
11:52 PM 12.0 °F 5.9 °F -2.9 °F 51% 30.25 in 10.0 mi North 3.5 mph - N/A   Scattered Clouds